NOAA 16 DEB, 41157

Orbit data source: Space-Track

NOAA 16 DEB, 41157 is space debris in SSO originally from a launch on Thu, 21 Sep 2000 UTC launched from the Air Force Western Test Range (AFWTR). Debris objects in space refer to the collection of defunct objects orbiting the Earth. Examples of debris include non-operational satellites, rocket bodies, and fragments generated from explosions, collisions, or faulty payload assembly.

Loading next visibility...
Identifier
41157, 2000-055CQ
Orbit
SSO
Country
Flag of USUS
Related business
Manufacturer
Unknown
Mission
Spacecraft
Bus & Motor
Unknown
Mass
Unknown
Launch date (UTC)
2000-09-21 (25 years ago)
Launch vehicle
Unknown
Launch site
Air Force Western Test Range (AFWTR)
Object type
Payload
Rocket body
Debris
Shape & HBR
Unknown shape, 0.1 m
Radar Cross Section
Small (<0.1 m²)

Expand to show TLE details & history
Last TLE update: 15 hours ago

TLE from 15 hours ago
0 NOAA 16 DEB
1 41157U 00055CQ  25290.78376413  .00029857  00000-0  88285-2 0  9999
2 41157  98.9242  46.4266 0023643 135.6144 224.6945 14.43181615509497
Epoch: 2025-10-17T18:48Z
TLE epoch observation values (Epoch: 2025-10-17T18:48:37.220Z)
Latitude
-0.00004°
Longitude
97.74735°
Altitude
762.944 km
Speed
7.467 km/s
True Right ascension
03h 05m 42s
True Declination
0° 00' 00"
Sunlit
Object was in full shadow at epoch
Visualization orbit readout
Latitude
Unknown
Longitude
Unknown
Altitude
Unknown
Speed
Unknown
Apparent Right ascension
Unknown
Apparent Declination
Unknown
Sunlit
N/A
Visualization observer readout
Local Sidereal Time
04:25:14
Azimuth
Unknown
Elevation
Unknown
Doppler factor
Unknown
Orbital elements
Apogee altitude
761.985 km
Perigee altitude
728.302 km
Semi-major axis
7,123.281 km
Eccentricity
0.00236
Inclination
98.9242°
RAAN
46.4266°
Arg. of periapsis
135.6144°
True anomaly
224.50435°
Mean anomaly
224.6945°
Eccentric anomaly
224.59938°
Mean motion
3.61013 °/min
Orbital period
99.72 mins
BSTAR
0.0088285
Loading maneuver chart data...
Computing Atmospheric mass density...
Loading historical data...
Loading historical data...
Loading historical data...
Loading historical data...
Loading historical data...
Loading historical data...
Loading historical data...

Documentation

Showing up to 5 results
|